, NV

(GMT )
Eureka Airport

Weather History for K05U - February, 2014

Change the Weather History Date:

Monday, February 3, 2014

  Actual Average Record
Temperature  
Mean Temperature 17 °F -  
Max Temperature 33 °F - - ()
Min Temperature 1 °F - - ()
Degree Days  
Heating Degree Days 48    
Moisture  
Dew Point 12 °F    
Average Humidity 80    
Maximum Humidity 93    
Minimum Humidity 60    
Precipitation  
Precipitation 0.00 in - - ()
Sea Level Pressure  
Sea Level Pressure 29.85 in    
Wind  
Wind Speed 5 mph (SW)    
Max Wind Speed 9 mph    
Max Gust Speed 17 mph    
Visibility 10 miles    
Events      
Averages and records for this station are not official NWS values.
T = Trace of Precipitation, MM = Missing Value Source: NWS Daily Summary

Daily Weather History Graph

Daily Weather History Graph

Search for Another Location

Airport or City:

Trip Planner

Search our weather history database for the weather conditions in past years. The results will help you decide how hot, cold, wet, or windy it might be!

Date:

Astronomy

Feb. 03, 2014 Rise Set
Actual Time 6:49 AM PST 5:06 PM PST
Civil Twilight 6:21 AM PST 5:34 PM PST
Nautical Twilight 5:49 AM PST 6:06 PM PST
Astronomical Twilight 5:17 AM PST 6:38 PM PST
Moon 8:55 AM PST (2/3) 10:00 PM PST (2/3)
Length of Visible Light 11h 13m
Length of Day
10h 16m
Waxing Crescent, 20% of the Moon is Illuminated
Feb 3
Waxing Crescent
Feb 6
First Quarter
Feb 14
Full
Feb 22
Last Quarter
Mar 1
New

Hourly Weather History & Observations

Time (PST) Temp. Windchill Dew Point Humidity Pressure Visibility Wind Dir Wind Speed Gust Speed Precip Events Conditions
12:10 AM 10.4 °F - 6.8 °F 85% 29.89 in 10.0 mi North - - N/A   Overcast
12:30 AM 8.6 °F - 6.8 °F 92% 29.89 in 10.0 mi North - - N/A   Overcast
12:50 AM 10.4 °F - 6.8 °F 85% 29.88 in 10.0 mi North - - N/A   Overcast
1:10 AM 8.6 °F - 6.8 °F 92% 29.88 in 10.0 mi North - - N/A   Overcast
1:30 AM 8.6 °F - 5.0 °F 85% 29.88 in 10.0 mi North - - N/A   Mostly Cloudy
1:50 AM 8.6 °F - 6.8 °F 92% 29.88 in 10.0 mi North - - N/A   Overcast
2:10 AM 8.6 °F - 3.2 °F 79% 29.89 in 10.0 mi North - - N/A   Overcast
2:30 AM 8.6 °F - 5.0 °F 85% 29.88 in 10.0 mi North - - N/A   Overcast
2:50 AM 6.8 °F - 1.4 °F 79% 29.88 in 10.0 mi North - - N/A   Mostly Cloudy
3:10 AM 5.0 °F - 1.4 °F 85% 29.87 in 10.0 mi North - - N/A   Clear
3:30 AM 5.0 °F - -0.4 °F 78% 29.87 in 10.0 mi North - - N/A   Clear
3:50 AM 3.2 °F - -0.4 °F 85% 29.87 in 10.0 mi North - - N/A   Clear
4:10 AM 1.4 °F - -0.4 °F 92% 29.87 in 10.0 mi North - - N/A   Clear
4:30 AM 1.4 °F - -2.2 °F 85% 29.86 in 10.0 mi North - - N/A   Mostly Cloudy
4:50 AM 3.2 °F - -0.4 °F 85% 29.86 in 10.0 mi North - - N/A   Mostly Cloudy
5:10 AM 5.0 °F - -0.4 °F 78% 29.86 in 10.0 mi North - - N/A   Clear
5:30 AM 3.2 °F - -0.4 °F 85% 29.86 in 10.0 mi North - - N/A   Clear
5:50 AM 5.0 °F - -0.4 °F 78% 29.86 in 10.0 mi North - - N/A   Clear
6:10 AM 3.2 °F - -0.4 °F 85% 29.87 in 10.0 mi North - - N/A   Partly Cloudy
6:30 AM 5.0 °F - 1.4 °F 85% 29.87 in 10.0 mi North - - N/A   Partly Cloudy
6:50 AM 5.0 °F - 1.4 °F 85% 29.87 in 10.0 mi North - - N/A   Mostly Cloudy
7:10 AM 5.0 °F - -0.4 °F 78% 29.87 in 10.0 mi North - - N/A   Overcast
7:30 AM 6.8 °F - 1.4 °F 79% 29.87 in 10.0 mi North - - N/A   Mostly Cloudy
7:45 AM 8.6 °F - 5.0 °F 85% 29.87 in 10.0 mi North - - N/A   Scattered Clouds
8:10 AM 8.6 °F - 5.0 °F 85% 29.88 in 10.0 mi North - - N/A   Mostly Cloudy
8:30 AM 10.4 °F - 6.8 °F 85% 29.88 in 10.0 mi North - - N/A   Overcast
8:50 AM 15.8 °F - 10.4 °F 79% 29.88 in 10.0 mi North - - N/A   Overcast
9:10 AM 17.6 °F - 14.0 °F 86% 29.88 in 10.0 mi North - - N/A   Overcast
9:30 AM 17.6 °F - 14.0 °F 86% 29.88 in 10.0 mi North - - N/A   Overcast
9:50 AM 19.4 °F - 14.0 °F 80% 29.87 in 10.0 mi North - - N/A   Overcast
10:10 AM 19.4 °F 11.5 °F 14.0 °F 80% 29.87 in 10.0 mi SW 5.8 mph - N/A   Scattered Clouds
10:30 AM 23.0 °F - 15.8 °F 74% 29.88 in 10.0 mi North - - N/A   Partly Cloudy
10:50 AM 24.8 °F 17.9 °F 17.6 °F 74% 29.87 in 10.0 mi SW 5.8 mph - N/A   Mostly Cloudy
11:10 AM 26.6 °F 19.1 °F 17.6 °F 69% 29.87 in 10.0 mi WSW 6.9 mph - N/A   Overcast
11:30 AM 24.8 °F 16.9 °F 17.6 °F 74% 29.86 in 10.0 mi SW 6.9 mph - N/A   Overcast
11:50 AM 24.8 °F 15.3 °F 17.6 °F 74% 29.85 in 10.0 mi SSW 9.2 mph - N/A   Mostly Cloudy
12:05 PM 26.6 °F 18.2 °F 17.6 °F 69% 29.84 in 10.0 mi South 8.1 mph - N/A   Mostly Cloudy
12:30 PM 32.0 °F - 19.4 °F 60% 29.84 in 10.0 mi Calm Calm - N/A   Mostly Cloudy
12:45 PM 32.0 °F 27.5 °F 19.4 °F 60% 29.84 in 10.0 mi ENE 4.6 mph - N/A   Overcast
1:10 PM 30.2 °F - 17.6 °F 60% 29.83 in 10.0 mi Calm Calm - N/A   Overcast
1:25 PM 32.0 °F - 19.4 °F 60% 29.82 in 10.0 mi Calm Calm - N/A   Mostly Cloudy
1:50 PM 32.0 °F 25.6 °F 19.4 °F 60% 29.82 in 10.0 mi SW 6.9 mph - N/A   Overcast
2:10 PM 32.0 °F 25.6 °F 21.2 °F 64% 29.81 in 10.0 mi SW 6.9 mph - N/A   Overcast
2:30 PM 32.0 °F 24.8 °F 19.4 °F 60% 29.81 in 10.0 mi WSW 8.1 mph - N/A   Overcast
2:50 PM 32.0 °F 25.6 °F 19.4 °F 60% 29.81 in 10.0 mi WSW 6.9 mph - N/A   Overcast
3:10 PM 33.8 °F 27.7 °F 21.2 °F 60% 29.81 in 10.0 mi WSW 6.9 mph - N/A   Overcast
3:30 PM 32.0 °F 26.4 °F 23.0 °F 69% 29.80 in 10.0 mi WSW 5.8 mph - N/A   Mostly Cloudy
3:50 PM 30.2 °F 21.9 °F 23.0 °F 75% 29.81 in 10.0 mi WSW 9.2 mph - N/A   Mostly Cloudy
4:10 PM 28.4 °F 20.4 °F 24.8 °F 86% 29.82 in 0.8 mi West 8.1 mph 17.3 mph N/A   Overcast
4:30 PM 28.4 °F 20.4 °F 24.8 °F 86% 29.82 in 9.0 mi WSW 8.1 mph - N/A   Mostly Cloudy
4:50 PM 28.4 °F 23.3 °F 24.8 °F 86% 29.82 in 5.0 mi West 4.6 mph - N/A   Mostly Cloudy
5:10 PM - - - N/A% 29.82 in 2.0 mi Calm Calm - N/A   Overcast
5:30 PM 26.6 °F 20.0 °F 23.0 °F 86% 29.83 in 10.0 mi West 5.8 mph - N/A   Overcast
5:50 PM 26.6 °F - 21.2 °F 80% 29.83 in 10.0 mi Calm Calm - N/A   Overcast
6:10 PM 24.8 °F 17.9 °F 19.4 °F 80% 29.83 in 10.0 mi SSE 5.8 mph - N/A   Overcast
6:30 PM 24.8 °F - 19.4 °F 80% 29.83 in 10.0 mi North - - N/A   Overcast
6:50 PM 24.8 °F 20.5 °F 19.4 °F 80% 29.84 in 10.0 mi West 3.5 mph - N/A   Overcast
7:10 PM 24.8 °F - 19.4 °F 80% 29.85 in 10.0 mi Calm Calm - N/A   Overcast
7:30 PM 24.8 °F 20.5 °F 19.4 °F 80% 29.85 in 10.0 mi NW 3.5 mph - N/A   Mostly Cloudy
7:50 PM 23.0 °F - 17.6 °F 80% 29.85 in 10.0 mi Calm Calm - N/A   Mostly Cloudy
8:10 PM 23.0 °F 18.4 °F 17.6 °F 80% 29.85 in 10.0 mi West 3.5 mph - N/A   Mostly Cloudy
8:30 PM 17.6 °F 10.7 °F 14.0 °F 86% 29.86 in 10.0 mi West 4.6 mph - N/A   Mostly Cloudy
8:50 PM 14.0 °F 2.9 °F 10.4 °F 86% 29.86 in 10.0 mi SSW 8.1 mph - N/A   Overcast
9:10 PM 15.8 °F - 12.2 °F 86% 29.85 in 10.0 mi North - - N/A   Overcast
9:30 PM 17.6 °F 9.3 °F 15.8 °F 93% 29.86 in 10.0 mi South 5.8 mph - N/A   Overcast
9:50 PM 19.4 °F - 14.0 °F 80% 29.86 in 10.0 mi North - - N/A   Overcast
10:10 PM 17.6 °F 10.7 °F 14.0 °F 86% 29.86 in 6.0 mi SSW 4.6 mph - N/A   Overcast
10:30 PM 19.4 °F 11.5 °F 15.8 °F 86% 29.86 in 5.0 mi South 5.8 mph - N/A   Overcast
10:50 PM 17.6 °F 10.7 °F 14.0 °F 86% 29.86 in 10.0 mi South 4.6 mph - N/A   Mostly Cloudy
11:10 PM 17.6 °F - 14.0 °F 86% 29.86 in 10.0 mi North - - N/A   Mostly Cloudy
11:30 PM 17.6 °F 12.3 °F 14.0 °F 86% 29.86 in 10.0 mi South 3.5 mph - N/A   Overcast
11:50 PM 15.8 °F 10.2 °F 10.4 °F 79% 29.86 in 10.0 mi ESE 3.5 mph - N/A   Mostly Cloudy